Weather History for Ruidoso, NM

Change the Weather History Date:

Wednesday, July 24, 2013

  Actual Average Record
Temperature  
Mean Temperature 68 °F -  
Max Temperature 80 °F 79 °F 87 °F (2000)
Min Temperature 57 °F 57 °F 55 °F (1996)
Cooling Degree Days 4    
Growing Degree Days 18 (Base 50)    
Moisture  
Dew Point 55 °F    
Average Humidity 73    
Maximum Humidity 100    
Minimum Humidity 34    
Precipitation  
Precipitation 1.21 in - - ()
Sea Level Pressure  
Sea Level Pressure 30.31 in    
Wind  
Wind Speed 6 mph (SSE)    
Max Wind Speed 20 mph    
Max Gust Speed 38 mph    
Visibility 9 miles    
Events Rain , Thunderstorm    
Averages and records for this station are not official NWS values.
T = Trace of Precipitation, MM = Missing Value Source: NWS Daily Summary

Daily Weather History Graph

Daily Weather History Graph

Search for Another Location

Airport:

Trip Planner

Search our weather history database for the weather conditions in past years. The results will help you decide how hot, cold, wet, or windy it might be!

Date:

Astronomy

Jul. 24, 2013 Rise Set
Actual Time 6:09 AM MDT 8:07 PM MDT
Civil Twilight 5:41 AM MDT 8:35 PM MDT
Nautical Twilight 5:08 AM MDT 9:08 PM MDT
Astronomical Twilight 4:32 AM MDT 9:44 PM MDT
Moon 9:26 PM MDT (7/24) 8:22 AM MDT (7/24)
Length of Visible Light 14h 53m
Length of Day
13h 58m
Waning Gibbous, 94% of the Moon is Illuminated
Jul 24
Waning Gibbous
Jul 29
Last Quarter
Aug 6
New
Aug 14
First Quarter
Aug 20
Full

Hourly Weather History & Observations

Time (MDT) Temp. Dew Point Humidity Pressure Visibility Wind Dir Wind Speed Gust Speed Precip Events Conditions
12:15 AM 68.0 °F 55.4 °F 64% 30.28 in 10.0 mi Calm Calm - N/A   Clear
12:35 AM 68.0 °F 55.4 °F 64% 30.29 in 10.0 mi Calm Calm - N/A   Clear
12:55 AM 68.0 °F 55.4 °F 64% 30.29 in 10.0 mi Calm Calm - N/A   Clear
1:15 AM 68.0 °F 55.4 °F 64% 30.28 in 10.0 mi Calm Calm - N/A   Clear
1:35 AM 66.2 °F 55.4 °F 68% 30.28 in 10.0 mi Calm Calm - N/A   Clear
1:55 AM 64.4 °F 55.4 °F 73% 30.28 in 10.0 mi West 5.8 mph - N/A   Clear
2:15 AM 64.4 °F 55.4 °F 73% 30.27 in 10.0 mi West 5.8 mph - N/A   Clear
2:35 AM 66.2 °F 53.6 °F 64% 30.27 in 10.0 mi West 3.5 mph - N/A   Clear
2:55 AM 64.4 °F 53.6 °F 68% 30.26 in 10.0 mi WNW 4.6 mph - N/A   Clear
3:15 AM 64.4 °F 53.6 °F 68% 30.26 in 10.0 mi West 6.9 mph - N/A   Clear
3:35 AM 64.4 °F 53.6 °F 68% 30.26 in 10.0 mi West 5.8 mph - N/A   Clear
3:55 AM 64.4 °F 53.6 °F 68% 30.26 in 10.0 mi West 6.9 mph - N/A   Clear
4:15 AM 62.6 °F 53.6 °F 72% 30.26 in 10.0 mi WSW 4.6 mph - N/A   Clear
4:35 AM 64.4 °F 53.6 °F 68% 30.26 in 10.0 mi West 5.8 mph - N/A   Clear
4:55 AM 64.4 °F 53.6 °F 68% 30.26 in 10.0 mi West 5.8 mph - N/A   Clear
5:15 AM 62.6 °F 53.6 °F 72% 30.27 in 10.0 mi SW 5.8 mph - N/A   Clear
5:35 AM 62.6 °F 53.6 °F 72% 30.27 in 10.0 mi SW 5.8 mph - N/A   Clear
5:55 AM 62.6 °F 53.6 °F 72% 30.28 in 10.0 mi WSW 6.9 mph - N/A   Clear
6:15 AM 62.6 °F 53.6 °F 72% 30.28 in 10.0 mi WSW 5.8 mph - N/A   Clear
6:35 AM 62.6 °F 53.6 °F 72% 30.28 in 10.0 mi WSW 4.6 mph - N/A   Clear
6:55 AM 64.4 °F 55.4 °F 73% 30.29 in 10.0 mi Calm Calm - N/A   Clear
7:15 AM 62.6 °F 55.4 °F 77% 30.29 in 10.0 mi Calm Calm - N/A   Clear
7:35 AM 66.2 °F 55.4 °F 68% 30.30 in 10.0 mi Calm Calm - N/A   Clear
7:55 AM 68.0 °F 55.4 °F 64% 30.30 in 10.0 mi Calm Calm - N/A   Clear
8:15 AM 69.8 °F 55.4 °F 60% 30.30 in 10.0 mi Calm Calm - N/A   Clear
8:35 AM 73.4 °F 55.4 °F 53% 30.30 in 10.0 mi ENE 4.6 mph - N/A   Clear
8:55 AM 73.4 °F 55.4 °F 53% 30.30 in 10.0 mi SE 9.2 mph - N/A   Clear
9:15 AM 73.4 °F 55.4 °F 53% 30.30 in 10.0 mi SSE 5.8 mph - N/A   Clear
9:35 AM 75.2 °F 55.4 °F 50% 30.30 in 10.0 mi SSE 9.2 mph - N/A   Clear
9:55 AM 75.2 °F 55.4 °F 50% 30.31 in 10.0 mi SE 11.5 mph - N/A   Clear
10:15 AM 77.0 °F 53.6 °F 44% 30.31 in 10.0 mi ESE 12.7 mph 17.3 mph N/A   Clear
10:35 AM 77.0 °F 53.6 °F 44% 30.32 in 10.0 mi ESE 12.7 mph 20.7 mph N/A   Clear
10:55 AM 77.0 °F 53.6 °F 44% 30.32 in 10.0 mi ESE 8.1 mph 19.6 mph N/A   Clear
11:15 AM 77.0 °F 50.0 °F 39% 30.32 in 10.0 mi East 15.0 mph 25.3 mph N/A   Clear
11:35 AM 80.6 °F 50.0 °F 34% 30.32 in 10.0 mi ESE 15.0 mph 23.0 mph N/A   Clear
11:55 AM 80.6 °F 51.8 °F 37% 30.31 in 10.0 mi ESE 16.1 mph 23.0 mph N/A   Partly Cloudy
12:15 PM 77.0 °F 51.8 °F 41% 30.32 in 10.0 mi ESE 11.5 mph 23.0 mph N/A   Partly Cloudy
12:35 PM 77.0 °F 51.8 °F 41% 30.31 in 10.0 mi ESE 17.3 mph 25.3 mph N/A   Partly Cloudy
12:55 PM 77.0 °F 51.8 °F 41% 30.29 in 10.0 mi ESE 16.1 mph 24.2 mph N/A   Partly Cloudy
1:15 PM 77.0 °F 51.8 °F 41% 30.28 in 10.0 mi SE 17.3 mph 23.0 mph N/A   Partly Cloudy
1:35 PM 77.0 °F 53.6 °F 44% 30.28 in 10.0 mi East 13.8 mph 21.9 mph N/A   Partly Cloudy
1:55 PM 77.0 °F 51.8 °F 41% 30.28 in 10.0 mi ESE 10.4 mph 18.4 mph N/A   Partly Cloudy
2:15 PM 77.0 °F 53.6 °F 44% 30.28 in 10.0 mi SE 9.2 mph 17.3 mph N/A   Partly Cloudy
2:35 PM 71.6 °F 53.6 °F 53% 30.27 in 10.0 mi West 8.1 mph - N/A   Scattered Clouds
2:55 PM 66.2 °F 59.0 °F 78% 30.27 in 7.0 mi WSW 18.4 mph 29.9 mph N/A Rain Light Rain
3:15 PM 59.0 °F 57.2 °F 94% 30.31 in 0.2 mi SSW 18.4 mph 38.0 mph 0.38 in Rain Heavy Rain
3:35 PM 62.6 °F 57.2 °F 82% 30.30 in 5.0 mi SE 4.6 mph - 0.52 in Rain Light Rain
3:55 PM 60.8 °F 57.2 °F 88% 30.30 in 10.0 mi NNW 6.9 mph - 0.53 in   Scattered Clouds
4:15 PM 59.0 °F 57.2 °F 94% 30.32 in 10.0 mi North 9.2 mph - N/A   Partly Cloudy
4:35 PM 59.0 °F 57.2 °F 94% 30.32 in 9.0 mi WNW 4.6 mph - N/A Rain Light Rain
4:55 PM 60.8 °F 57.2 °F 88% 30.31 in 7.0 mi NNE 4.6 mph - 0.02 in Rain Light Rain
5:15 PM 59.0 °F 57.2 °F 94% 30.31 in 10.0 mi Calm Calm - N/A Rain Light Rain
5:35 PM 59.0 °F 59.0 °F 100% 30.31 in 10.0 mi WNW 3.5 mph - N/A   Scattered Clouds
5:55 PM 62.6 °F 59.0 °F 88% 30.33 in 10.0 mi South 3.5 mph - N/A Thunderstorm Mostly Cloudy
6:15 PM 59.0 °F 59.0 °F 100% 30.34 in 2.5 mi South 4.6 mph - 0.09 in Rain , Thunderstorm Light Rain
6:35 PM 60.8 °F 59.0 °F 94% 30.33 in 4.0 mi NE 6.9 mph - 0.12 in Rain , Thunderstorm Light Rain
6:55 PM 59.0 °F 59.0 °F 100% 30.34 in 4.0 mi NNE 5.8 mph - 0.15 in Rain , Thunderstorm Light Rain
7:15 PM 59.0 °F 59.0 °F 100% 30.37 in 3.0 mi West 6.9 mph - 0.04 in Rain , Thunderstorm Light Rain
7:35 PM 59.0 °F 59.0 °F 100% 30.37 in 3.0 mi East 5.8 mph - 0.15 in Rain , Thunderstorm Light Rain
7:55 PM 59.0 °F 59.0 °F 100% 30.39 in 5.0 mi SE 9.2 mph - 0.20 in Rain , Thunderstorm Light Rain
8:15 PM 59.0 °F 59.0 °F 100% 30.37 in 1.8 mi East 19.6 mph - 0.18 in Rain , Thunderstorm Light Rain
8:35 PM 57.2 °F 57.2 °F 100% 30.38 in 5.0 mi ESE 12.7 mph 17.3 mph 0.21 in Rain Light Rain
8:55 PM 57.2 °F 57.2 °F 100% 30.39 in 6.0 mi SE 16.1 mph 20.7 mph 0.23 in Thunderstorm Overcast
9:15 PM 57.2 °F 57.2 °F 100% 30.39 in 5.0 mi SE 11.5 mph - 0.03 in Rain Light Rain
9:35 PM 57.2 °F 57.2 °F 100% 30.38 in 7.0 mi ESE 15.0 mph - 0.06 in   Mostly Cloudy
9:55 PM 57.2 °F 55.4 °F 94% 30.38 in 7.0 mi East 4.6 mph 18.4 mph 0.08 in   Overcast
10:15 PM 57.2 °F 57.2 °F 100% 30.39 in 10.0 mi South 12.7 mph - N/A   Overcast
10:35 PM 57.2 °F 55.4 °F 94% 30.39 in 10.0 mi SSE 4.6 mph - N/A   Mostly Cloudy
10:55 PM 57.2 °F 55.4 °F 94% 30.39 in 10.0 mi South 3.5 mph - N/A   Mostly Cloudy
11:15 PM 57.2 °F 55.4 °F 94% 30.39 in 10.0 mi NE 3.5 mph - N/A   Overcast
11:35 PM 57.2 °F 55.4 °F 94% 30.40 in 10.0 mi North 3.5 mph - N/A   Overcast
11:55 PM 57.2 °F 57.2 °F 100% 30.41 in 8.0 mi NE 3.5 mph - N/A   Overcast